Time,TemperatureF,DewpointF,PressureIn,WindDirection,WindDirectionDegrees,WindSpeedMPH,WindSpeedGustMPH,Humidity,HourlyPrecipIn,Conditions,Clouds,dailyrainin,SoftwareType,DateUTC
2013-06-06 00:02:00,50.0,46.0,30.04,South,182,0.0,0.0,87,0.00,,,0.07,,2013-06-06 06:02:00,
2013-06-06 00:12:00,50.0,46.0,30.04,South,182,0.0,0.0,87,0.00,,,0.07,,2013-06-06 06:12:00,
2013-06-06 00:22:00,49.0,46.0,30.04,South,182,0.0,0.0,88,0.00,,,0.07,,2013-06-06 06:22:00,
2013-06-06 00:32:00,49.0,46.0,30.04,South,182,0.0,0.0,88,0.00,,,0.01,,2013-06-06 06:32:00,
2013-06-06 00:42:00,49.0,46.0,30.04,South,182,0.0,0.0,88,0.00,,,0.01,,2013-06-06 06:42:00,
2013-06-06 00:52:00,49.0,46.0,30.03,South,182,0.0,0.0,89,0.00,,,0.01,,2013-06-06 06:52:00,
2013-06-06 01:02:00,49.0,46.0,30.03,South,182,0.0,0.0,89,0.00,,,0.01,,2013-06-06 07:02:00,
2013-06-06 01:12:00,49.0,46.0,30.03,South,182,0.0,0.0,89,0.00,,,0.01,,2013-06-06 07:12:00,
2013-06-06 01:22:00,49.0,46.0,30.02,South,182,0.0,1.0,89,0.00,,,0.01,,2013-06-06 07:22:00,
2013-06-06 01:32:00,49.0,46.0,30.02,South,182,0.0,0.0,89,0.00,,,0.01,,2013-06-06 07:32:00,
2013-06-06 01:42:00,49.0,46.0,30.02,South,182,0.0,0.0,89,0.00,,,0.01,,2013-06-06 07:42:00,
2013-06-06 01:52:00,49.0,46.0,30.01,South,180,0.0,3.0,89,0.00,,,0.01,,2013-06-06 07:52:00,
2013-06-06 02:02:00,49.0,46.0,30.01,South,180,0.0,3.0,88,0.00,,,0.01,,2013-06-06 08:02:00,
2013-06-06 02:12:00,49.0,46.0,30.01,South,180,0.0,3.0,88,0.00,,,0.01,,2013-06-06 08:12:00,
2013-06-06 02:22:00,49.0,46.0,30.00,South,180,0.0,0.0,89,0.00,,,0.01,,2013-06-06 08:22:00,
2013-06-06 02:32:00,48.0,45.0,29.99,South,180,0.0,0.0,90,0.00,,,0.01,,2013-06-06 08:32:00,
2013-06-06 02:42:00,48.0,45.0,29.99,South,180,0.0,0.0,90,0.00,,,0.01,,2013-06-06 08:42:00,
2013-06-06 02:52:00,48.0,45.0,29.99,South,180,0.0,0.0,90,0.00,,,0.01,,2013-06-06 08:52:00,
2013-06-06 03:02:00,48.0,45.0,29.98,South,180,0.0,0.0,90,0.00,,,0.01,,2013-06-06 09:02:00,
2013-06-06 03:12:00,48.0,45.0,29.98,South,180,0.0,0.0,90,0.00,,,0.01,,2013-06-06 09:12:00,
2013-06-06 03:22:00,47.0,44.0,29.98,South,180,0.0,0.0,90,0.00,,,0.01,,2013-06-06 09:22:00,
2013-06-06 03:33:00,47.0,45.0,29.98,South,180,0.0,0.0,92,0.00,,,0.01,,2013-06-06 09:33:00,
2013-06-06 03:43:00,47.0,45.0,29.98,South,180,0.0,0.0,92,0.00,,,0.01,,2013-06-06 09:43:00,
2013-06-06 03:53:00,46.0,44.0,29.97,South,180,0.0,0.0,91,0.00,,,0.01,,2013-06-06 09:53:00,
2013-06-06 04:03:00,46.0,44.0,29.97,South,180,0.0,0.0,92,0.00,,,0.01,,2013-06-06 10:03:00,
2013-06-06 04:12:00,46.0,44.0,29.97,South,180,0.0,0.0,92,0.00,,,0.01,,2013-06-06 10:12:00,
2013-06-06 04:23:00,45.0,43.0,29.97,South,180,0.0,0.0,92,0.00,,,0.01,,2013-06-06 10:23:00,
2013-06-06 04:33:00,45.0,43.0,29.98,South,180,0.0,0.0,93,0.00,,,0.01,,2013-06-06 10:33:00,
2013-06-06 04:42:00,45.0,43.0,29.98,South,180,0.0,0.0,93,0.00,,,0.01,,2013-06-06 10:42:00,
2013-06-06 04:52:00,45.0,43.0,29.98,South,180,0.0,0.0,93,0.00,,,0.01,,2013-06-06 10:52:00,
2013-06-06 05:02:00,44.0,42.0,29.98,South,180,0.0,0.0,94,0.00,,,0.01,,2013-06-06 11:02:00,
2013-06-06 05:12:00,44.0,42.0,29.98,South,180,0.0,0.0,94,0.00,,,0.01,,2013-06-06 11:12:00,
2013-06-06 05:22:00,44.0,42.0,29.98,South,180,0.0,0.0,94,0.00,,,0.01,,2013-06-06 11:22:00,
2013-06-06 05:32:00,44.0,42.0,29.98,South,180,0.0,0.0,94,0.00,,,0.01,,2013-06-06 11:32:00,
2013-06-06 05:42:00,44.0,42.0,29.98,South,180,0.0,0.0,94,0.00,,,0.01,,2013-06-06 11:42:00,
2013-06-06 05:52:00,43.0,41.0,29.98,South,180,0.0,0.0,94,0.00,,,0.01,,2013-06-06 11:52:00,
2013-06-06 06:02:00,43.0,42.0,29.99,South,180,0.0,0.0,95,0.00,,,0.01,,2013-06-06 12:02:00,
2013-06-06 06:12:00,43.0,42.0,29.99,South,180,0.0,0.0,95,0.00,,,0.01,,2013-06-06 12:12:00,
2013-06-06 06:22:00,44.0,42.0,29.99,South,180,0.0,0.0,94,0.00,,,0.01,,2013-06-06 12:22:00,
2013-06-06 06:33:00,44.0,43.0,30.00,South,180,0.0,0.0,95,0.00,,,0.00,,2013-06-06 12:33:00,
2013-06-06 06:42:00,44.0,43.0,30.00,South,180,0.0,0.0,95,0.00,,,0.00,,2013-06-06 12:42:00,
2013-06-06 06:52:00,45.0,44.0,30.00,South,180,0.0,0.0,96,0.00,,,0.00,,2013-06-06 12:52:00,
2013-06-06 07:03:00,45.0,44.0,30.00,South,180,0.0,0.0,96,0.00,,,0.00,,2013-06-06 13:03:00,
2013-06-06 07:13:00,45.0,44.0,30.00,South,180,0.0,0.0,96,0.00,,,0.00,,2013-06-06 13:13:00,
2013-06-06 07:22:00,46.0,45.0,30.00,South,180,0.0,0.0,96,0.00,,,0.00,,2013-06-06 13:22:00,
2013-06-06 07:32:00,47.0,45.0,29.99,South,180,0.0,0.0,94,0.00,,,0.00,,2013-06-06 13:32:00,
2013-06-06 07:43:00,47.0,45.0,29.99,South,180,0.0,0.0,94,0.00,,,0.00,,2013-06-06 13:43:00,
2013-06-06 07:52:00,50.0,47.0,30.00,WSW,257,0.0,3.0,88,0.00,,,0.00,,2013-06-06 13:52:00,
2013-06-06 08:03:00,52.0,47.0,30.00,NW,321,0.0,0.0,82,0.00,,,0.00,,2013-06-06 14:03:00,
2013-06-06 08:13:00,52.0,47.0,30.00,NW,321,0.0,0.0,82,0.00,,,0.00,,2013-06-06 14:13:00,
2013-06-06 08:22:00,54.0,47.0,30.00,North,5,0.0,0.0,76,0.00,,,0.00,,2013-06-06 14:22:00,
2013-06-06 08:33:00,55.0,46.0,30.01,WNW,291,0.0,0.0,71,0.00,,,0.00,,2013-06-06 14:33:00,
2013-06-06 08:43:00,55.0,46.0,30.01,WNW,291,0.0,0.0,71,0.00,,,0.00,,2013-06-06 14:43:00,
2013-06-06 08:52:00,57.0,47.0,30.00,North,349,0.0,0.0,68,0.00,,,0.00,,2013-06-06 14:52:00,
2013-06-06 09:03:00,58.0,45.0,30.01,NNW,342,1.0,5.0,63,0.00,,,0.00,,2013-06-06 15:03:00,
2013-06-06 09:13:00,58.0,45.0,30.01,NNW,342,1.0,5.0,63,0.00,,,0.00,,2013-06-06 15:13:00,
2013-06-06 09:23:00,59.0,46.0,30.01,West,271,3.0,5.0,62,0.00,,,0.00,,2013-06-06 15:23:00,
2013-06-06 09:33:00,60.0,47.0,30.01,North,355,2.0,5.0,62,0.00,,,0.00,,2013-06-06 15:33:00,
2013-06-06 09:43:00,60.0,47.0,30.01,North,355,2.0,5.0,62,0.00,,,0.00,,2013-06-06 15:43:00,
2013-06-06 09:53:00,61.0,47.0,30.00,NW,311,0.0,3.0,61,0.00,,,0.00,,2013-06-06 15:53:00,
2013-06-06 10:03:00,62.0,47.0,30.00,North,5,1.0,4.0,58,0.00,,,0.00,,2013-06-06 16:03:00,
2013-06-06 10:12:00,62.0,47.0,30.00,North,5,1.0,4.0,58,0.00,,,0.00,,2013-06-06 16:12:00,
2013-06-06 10:23:00,63.0,47.0,29.99,NNE,24,1.0,6.0,55,0.00,,,0.00,,2013-06-06 16:23:00,
2013-06-06 10:33:00,64.0,47.0,29.99,SE,135,1.0,4.0,53,0.00,,,0.00,,2013-06-06 16:33:00,
2013-06-06 10:43:00,64.0,47.0,29.99,SE,135,1.0,4.0,53,0.00,,,0.00,,2013-06-06 16:43:00,
2013-06-06 10:52:00,66.0,47.0,29.99,North,360,0.0,5.0,51,0.00,,,0.00,,2013-06-06 16:52:00,
2013-06-06 11:03:00,67.0,47.0,29.99,NNE,17,0.0,6.0,48,0.00,,,0.00,,2013-06-06 17:03:00,
2013-06-06 11:13:00,67.0,47.0,29.99,NNE,17,0.0,6.0,48,0.00,,,0.00,,2013-06-06 17:13:00,
2013-06-06 11:23:00,67.0,46.0,29.99,North,360,1.0,6.0,46,0.00,,,0.00,,2013-06-06 17:23:00,
2013-06-06 11:33:00,68.0,46.0,29.99,NNE,13,1.0,7.0,45,0.00,,,0.00,,2013-06-06 17:33:00,
2013-06-06 11:43:00,68.0,46.0,29.99,NNE,13,1.0,7.0,45,0.00,,,0.00,,2013-06-06 17:43:00,
2013-06-06 11:52:00,69.0,47.0,29.98,North,349,0.0,5.0,45,0.00,,,0.00,,2013-06-06 17:52:00,
2013-06-06 12:03:00,70.0,47.0,29.98,NNW,348,2.0,6.0,44,0.00,,,0.00,,2013-06-06 18:03:00,
2013-06-06 12:13:00,70.0,47.0,29.98,NNW,348,2.0,6.0,44,0.00,,,0.00,,2013-06-06 18:13:00,
2013-06-06 12:23:00,71.0,47.0,29.98,SE,136,0.0,8.0,43,0.00,,,0.00,,2013-06-06 18:23:00,
2013-06-06 12:33:00,72.0,46.0,29.97,North,360,0.0,8.0,40,0.00,,,0.00,,2013-06-06 18:33:00,
2013-06-06 12:43:00,72.0,46.0,29.97,North,360,0.0,8.0,40,0.00,,,0.00,,2013-06-06 18:43:00,
2013-06-06 12:53:00,72.0,47.0,29.96,NNE,31,4.0,10.0,41,0.00,,,0.00,,2013-06-06 18:53:00,
2013-06-06 13:03:00,74.0,45.0,29.96,North,10,0.0,7.0,35,0.00,,,0.00,,2013-06-06 19:03:00,
2013-06-06 13:13:00,74.0,45.0,29.96,North,10,0.0,7.0,35,0.00,,,0.00,,2013-06-06 19:13:00,
2013-06-06 13:23:00,74.0,45.0,29.95,SW,233,0.0,7.0,35,0.00,,,0.00,,2013-06-06 19:23:00,
2013-06-06 13:33:00,75.0,41.0,29.95,NNW,348,0.0,8.0,29,0.00,,,0.00,,2013-06-06 19:33:00,
2013-06-06 13:43:00,75.0,41.0,29.95,NNW,348,0.0,8.0,29,0.00,,,0.00,,2013-06-06 19:43:00,
2013-06-06 13:53:00,77.0,44.0,29.94,NNW,341,1.0,5.0,31,0.00,,,0.00,,2013-06-06 19:53:00,
2013-06-06 14:03:00,76.0,42.0,29.93,NW,326,2.0,10.0,30,0.00,,,0.00,,2013-06-06 20:03:00,
2013-06-06 14:13:00,76.0,42.0,29.93,NW,326,2.0,10.0,30,0.00,,,0.00,,2013-06-06 20:13:00,
2013-06-06 14:23:00,76.0,42.0,29.93,SE,128,2.0,4.0,30,0.00,,,0.00,,2013-06-06 20:23:00,
2013-06-06 14:33:00,77.0,40.0,29.92,NE,36,3.0,8.0,27,0.00,,,0.00,,2013-06-06 20:33:00,
2013-06-06 14:42:00,77.0,40.0,29.92,NE,36,3.0,8.0,27,0.00,,,0.00,,2013-06-06 20:42:00,
2013-06-06 14:53:00,77.0,39.0,29.92,North,9,3.0,12.0,26,0.00,,,0.00,,2013-06-06 20:53:00,
2013-06-06 15:03:00,77.0,37.0,29.91,North,9,4.0,11.0,24,0.00,,,0.00,,2013-06-06 21:03:00,
2013-06-06 15:13:00,77.0,37.0,29.91,North,9,4.0,11.0,24,0.00,,,0.00,,2013-06-06 21:13:00,
2013-06-06 15:23:00,77.0,35.0,29.91,East,90,4.0,10.0,22,0.00,,,0.00,,2013-06-06 21:23:00,
2013-06-06 15:33:00,77.0,36.0,29.91,ENE,58,0.0,9.0,23,0.00,,,0.00,,2013-06-06 21:33:00,
2013-06-06 15:43:00,77.0,36.0,29.91,ENE,58,0.0,9.0,23,0.00,,,0.00,,2013-06-06 21:43:00,
2013-06-06 15:53:00,77.0,36.0,29.90,NNW,341,4.0,9.0,23,0.00,,,0.00,,2013-06-06 21:53:00,
2013-06-06 16:03:00,77.0,36.0,29.89,North,5,4.0,11.0,23,0.00,,,0.00,,2013-06-06 22:03:00,
2013-06-06 16:13:00,77.0,36.0,29.89,North,5,4.0,11.0,23,0.00,,,0.00,,2013-06-06 22:13:00,
2013-06-06 16:23:00,77.0,35.0,29.89,NNE,13,3.0,9.0,22,0.00,,,0.00,,2013-06-06 22:23:00,
2013-06-06 16:33:00,78.0,37.0,29.88,NNW,329,3.0,8.0,23,0.00,,,0.00,,2013-06-06 22:33:00,
2013-06-06 16:43:00,78.0,37.0,29.88,NNW,329,3.0,8.0,23,0.00,,,0.00,,2013-06-06 22:43:00,
2013-06-06 16:53:00,78.0,36.0,29.88,NNE,23,3.0,7.0,22,0.00,,,0.00,,2013-06-06 22:53:00,
2013-06-06 17:02:00,78.0,37.0,29.88,NNE,23,1.0,8.0,23,0.00,,,0.00,,2013-06-06 23:02:00,
2013-06-06 17:12:00,78.0,37.0,29.88,NNE,23,1.0,8.0,23,0.00,,,0.00,,2013-06-06 23:12:00,
2013-06-06 17:22:00,77.0,37.0,29.87,NE,52,0.0,8.0,24,0.00,,,0.00,,2013-06-06 23:22:00,
2013-06-06 17:33:00,78.0,36.0,29.87,NW,311,0.0,3.0,22,0.00,,,0.00,,2013-06-06 23:33:00,
2013-06-06 17:43:00,78.0,36.0,29.87,NW,311,0.0,3.0,22,0.00,,,0.00,,2013-06-06 23:43:00,
2013-06-06 17:52:00,80.0,38.0,29.87,NNE,18,4.0,10.0,22,0.00,,,0.00,,2013-06-06 23:52:00,
2013-06-06 18:02:00,77.0,34.0,29.86,SE,140,1.0,6.0,21,0.00,,,0.00,,2013-06-07 00:02:00,
2013-06-06 18:12:00,77.0,34.0,29.86,SE,140,1.0,6.0,21,0.00,,,0.00,,2013-06-07 00:12:00,
2013-06-06 18:22:00,77.0,36.0,29.85,NNW,334,1.0,7.0,23,0.00,,,0.00,,2013-06-07 00:22:00,
2013-06-06 18:32:00,77.0,36.0,29.85,North,349,1.0,6.0,23,0.00,,,0.00,,2013-06-07 00:32:00,
2013-06-06 18:42:00,77.0,36.0,29.85,North,349,1.0,6.0,23,0.00,,,0.00,,2013-06-07 00:42:00,
2013-06-06 18:52:00,76.0,36.0,29.85,ENE,65,0.0,4.0,23,0.00,,,0.00,,2013-06-07 00:52:00,
2013-06-06 19:02:00,76.0,36.0,29.85,NNE,15,2.0,9.0,23,0.00,,,0.00,,2013-06-07 01:02:00,
2013-06-06 19:12:00,76.0,36.0,29.85,NNE,15,2.0,9.0,23,0.00,,,0.00,,2013-06-07 01:12:00,
2013-06-06 19:22:00,76.0,37.0,29.85,NE,35,3.0,8.0,24,0.00,,,0.00,,2013-06-07 01:22:00,
2013-06-06 19:32:00,75.0,37.0,29.86,NNW,348,3.0,8.0,25,0.00,,,0.00,,2013-06-07 01:32:00,
2013-06-06 19:42:00,75.0,37.0,29.86,NNW,348,3.0,8.0,25,0.00,,,0.00,,2013-06-07 01:42:00,
2013-06-06 19:52:00,74.0,37.0,29.86,North,11,2.0,8.0,26,0.00,,,0.00,,2013-06-07 01:52:00,
2013-06-06 20:02:00,74.0,38.0,29.86,NNE,27,0.0,6.0,27,0.00,,,0.00,,2013-06-07 02:02:00,
2013-06-06 20:12:00,74.0,38.0,29.86,NNE,27,0.0,6.0,27,0.00,,,0.00,,2013-06-07 02:12:00,
2013-06-06 20:22:00,73.0,38.0,29.86,NNE,17,1.0,4.0,28,0.00,,,0.00,,2013-06-07 02:22:00,
2013-06-06 20:32:00,72.0,38.0,29.87,NNE,18,0.0,5.0,29,0.00,,,0.00,,2013-06-07 02:32:00,
2013-06-06 20:42:00,72.0,38.0,29.87,NNE,18,0.0,5.0,29,0.00,,,0.00,,2013-06-07 02:42:00,
2013-06-06 20:52:00,71.0,38.0,29.87,SE,128,0.0,5.0,30,0.00,,,0.00,,2013-06-07 02:52:00,
2013-06-06 21:02:00,71.0,38.0,29.88,ENE,68,0.0,1.0,30,0.00,,,0.00,,2013-06-07 03:02:00,
2013-06-06 21:12:00,71.0,38.0,29.88,ENE,68,0.0,1.0,30,0.00,,,0.00,,2013-06-07 03:12:00,
2013-06-06 21:22:00,70.0,38.0,29.88,SSE,157,0.0,4.0,31,0.00,,,0.00,,2013-06-07 03:22:00,
2013-06-06 21:33:00,70.0,39.0,29.88,SE,137,1.0,5.0,32,0.00,,,0.00,,2013-06-07 03:33:00,
2013-06-06 21:43:00,70.0,39.0,29.88,SE,137,1.0,5.0,32,0.00,,,0.00,,2013-06-07 03:43:00,
2013-06-06 21:53:00,69.0,38.0,29.89,East,80,2.0,9.0,32,0.00,,,0.00,,2013-06-07 03:53:00,
2013-06-06 22:03:00,69.0,38.0,29.90,ESE,119,5.0,11.0,32,0.00,,,0.00,,2013-06-07 04:03:00,
2013-06-06 22:12:00,69.0,38.0,29.90,ESE,119,5.0,11.0,32,0.00,,,0.00,,2013-06-07 04:12:00,
2013-06-06 22:23:00,68.0,39.0,29.90,ESE,121,2.0,10.0,34,0.00,,,0.00,,2013-06-07 04:23:00,
2013-06-06 22:33:00,67.0,38.0,29.91,ESE,107,3.0,9.0,35,0.00,,,0.00,,2013-06-07 04:33:00,
2013-06-06 22:42:00,67.0,38.0,29.91,ESE,107,3.0,9.0,35,0.00,,,0.00,,2013-06-07 04:42:00,
2013-06-06 22:53:00,66.0,38.0,29.91,ESE,121,3.0,8.0,36,0.00,,,0.00,,2013-06-07 04:53:00,
2013-06-06 23:03:00,66.0,38.0,29.91,ESE,117,2.0,8.0,36,0.00,,,0.00,,2013-06-07 05:03:00,
2013-06-06 23:12:00,66.0,38.0,29.91,ESE,117,2.0,8.0,36,0.00,,,0.00,,2013-06-07 05:12:00,
2013-06-06 23:22:00,65.0,39.0,29.91,ESE,113,0.0,8.0,39,0.00,,,0.00,,2013-06-07 05:22:00,
2013-06-06 23:32:00,64.0,39.0,29.91,SE,124,0.0,2.0,39,0.00,,,0.00,,2013-06-07 05:32:00,
2013-06-06 23:42:00,64.0,39.0,29.91,SE,124,0.0,2.0,39,0.00,,,0.00,,2013-06-07 05:42:00,
2013-06-06 23:52:00,63.0,38.0,29.92,WSW,249,0.0,3.0,40,0.00,,,0.00,,2013-06-07 05:52:00,